Location: Gwatt
(46.7204°N, 7.6223°E)
Time: 17:30:03
(UTC+00:00)

Cosmos 1125 Rocket - Pass Details

Date: 18 September 2020
Orbit: 758 x 779 km, 74.0° (Epoch: 29 October)

Event Time Altitude Azimuth Distance (km) Brightness Sun altitude
Rises 18:56:49 0° 171° (S) 3,242 6.5 -14.7°
Reaches altitude 10° 18:59:25 10° 161° (SSE) 2,322 5.6 -15.1°
Maximum altitude 19:03:59 31° 100° (E) 1,352 4.2 -15.8°
Drops below altitude 10° 19:08:36 10° 40° (NE) 2,341 5.8 -16.6°
Sets 19:11:13 0° 31° (NNE) 3,274 6.7 -17.0°
